,,Stat6,,Stat2,,Stat8,,Stat9,,Stat10,,Wind1,,Wind1,
time,status,PA1M_AVG,status,PR1M_SUM,status,RH1M_AVG,status,SR1M_AVG,status,TA1M_AVG,status,W1dAve1m,status,W1sAve1m,
2005-08-11, 00:00:00,VALID,917.873,VALID,0,VALID,92.9276,VALID,0.0169808,VALID,20.0989,VALID,352,VALID,0.357701,
2005-08-11, 00:01:00,VALID,917.881,VALID,0,VALID,92.9632,VALID,0.0339617,VALID,20.0656,VALID,350,VALID,0.314406,
2005-08-11, 00:02:00,VALID,917.872,VALID,0,VALID,92.8538,VALID,0.0679233,VALID,20.0599,VALID,344,VALID,0.324041,
2005-08-11, 00:03:00,VALID,917.883,VALID,0,VALID,92.9568,VALID,0.0169808,VALID,20.0602,VALID,344,VALID,0.297783,
2005-08-11, 00:04:00,VALID,917.868,VALID,0,VALID,92.8615,VALID,0.0509425,VALID,20.0336,VALID,344,VALID,0.0490234,
2005-08-11, 00:05:00,VALID,917.843,VALID,0,VALID,93.1438,VALID,0.0169808,VALID,20.0341,VALID,344,VALID,0,
2005-08-11, 00:06:00,VALID,917.813,VALID,0,VALID,93.0993,VALID,0.0169808,VALID,20.0182,VALID,344,VALID,0.000887784,
2005-08-11, 00:07:00,VALID,917.784,VALID,0,VALID,92.9339,VALID,0,VALID,20.0053,VALID,344,VALID,0.00967262,
2005-08-11, 00:08:00,VALID,917.757,VALID,0,VALID,93.0141,VALID,0,VALID,19.9956,VALID,344,VALID,0.018532,
2005-08-11, 00:09:00,VALID,917.745,VALID,0,VALID,93.2264,VALID,0.0169808,VALID,20.015,VALID,344,VALID,0.0012718,
2005-08-11, 00:10:00,VALID,917.746,VALID,0,VALID,93.7389,VALID,0.0339617,VALID,20.0284,VALID,344,VALID,0.0234375,
2005-08-11, 00:11:00,VALID,917.747,VALID,0,VALID,93.8279,VALID,0.0339617,VALID,20.0088,VALID,344,VALID,0.0407774,
2005-08-11, 00:12:00,VALID,917.739,VALID,0,VALID,94.0771,VALID,0,VALID,20.0053,VALID,344,VALID,0,
2005-08-11, 00:13:00,VALID,917.727,VALID,0,VALID,94.5578,VALID,0.0169808,VALID,20.0023,VALID,344,VALID,0.0195313,
2005-08-11, 00:14:00,VALID,917.723,VALID,0,VALID,94.4815,VALID,0.0169808,VALID,19.9929,VALID,344,VALID,0.0765625,
2005-08-11, 00:15:00,VALID,917.694,VALID,0,VALID,94.3365,VALID,-0.0169808,VALID,19.9509,VALID,344,VALID,0.107851,
2005-08-11, 00:16:00,VALID,917.677,VALID,0,VALID,93.8063,VALID,0.0169808,VALID,19.9417,VALID,343,VALID,0.478423,
2005-08-11, 00:17:00,VALID,917.655,VALID,0,VALID,93.4693,VALID,0.0339617,VALID,19.9375,VALID,343,VALID,0.277248,
2005-08-11, 00:18:00,VALID,917.632,VALID,0,VALID,93.3218,VALID,0,VALID,19.9476,VALID,343,VALID,0.253125,
2005-08-11, 00:19:00,VALID,917.614,VALID,0,VALID,93.0064,VALID,0.0169808,VALID,19.9541,VALID,343,VALID,0.502362,
2005-08-11, 00:20:00,VALID,917.598,VALID,0,VALID,93.4426,VALID,0,VALID,19.9894,VALID,343,VALID,0.299538,
2005-08-11, 00:21:00,VALID,917.602,VALID,0,VALID,93.8889,VALID,0.0339617,VALID,20.0085,VALID,343,VALID,0.166406,
2005-08-11, 00:22:00,VALID,917.594,VALID,0,VALID,94.2717,VALID,0.0169808,VALID,20.0122,VALID,343,VALID,0.212843,
2005-08-11, 00:23:00,VALID,917.577,VALID,0,VALID,94.2806,VALID,0,VALID,19.9961,VALID,343,VALID,0.150073,
2005-08-11, 00:24:00,VALID,917.566,VALID,0,VALID,94.5349,VALID,0.0339617,VALID,19.973,VALID,343,VALID,0.29742,
2005-08-11, 00:25:00,VALID,917.55,VALID,0,VALID,94.4866,VALID,0.0169808,VALID,19.9534,VALID,343,VALID,0.338605,
2005-08-11, 00:26:00,VALID,917.54,VALID,0,VALID,94.3175,VALID,0.0169808,VALID,19.928,VALID,343,VALID,0.396802,
2005-08-11, 00:27:00,VALID,917.534,VALID,0,VALID,94.3454,VALID,0.0339617,VALID,19.9119,VALID,343,VALID,0.384718,
2005-08-11, 00:28:00,VALID,917.528,VALID,0,VALID,93.8686,VALID,0.0169808,VALID,19.8888,VALID,343,VALID,0.34737,
2005-08-11, 00:29:00,VALID,917.524,VALID,0,VALID,93.6473,VALID,0.0679233,VALID,19.8895,VALID,343,VALID,0.467478,
2005-08-11, 00:30:00,VALID,917.516,VALID,0,VALID,93.6549,VALID,0.0509425,VALID,19.8761,VALID,343,VALID,0.354688,
2005-08-11, 00:31:00,VALID,917.49,VALID,0,VALID,94.1941,VALID,0.0339617,VALID,19.8823,VALID,343,VALID,0.326308,
2005-08-11, 00:32:00,VALID,917.477,VALID,0,VALID,94.4891,VALID,0.0339617,VALID,19.8888,VALID,344,VALID,0.417791,
2005-08-11, 00:33:00,VALID,917.463,VALID,0,VALID,94.3861,VALID,0.0509425,VALID,19.857,VALID,344,VALID,0.465946,
2005-08-11, 00:34:00,VALID,917.454,VALID,0,VALID,94.5514,VALID,0.0509425,VALID,19.8406,VALID,344,VALID,0.323864,
2005-08-11, 00:35:00,VALID,917.445,VALID,0,VALID,94.3302,VALID,0.0339617,VALID,19.8249,VALID,344,VALID,0.460747,
2005-08-11, 00:36:00,VALID,917.436,VALID,0,VALID,94.0034,VALID,0,VALID,19.7986,VALID,344,VALID,0.400073,
2005-08-11, 00:37:00,VALID,917.4,VALID,0,VALID,93.8431,VALID,0.0169808,VALID,19.7956,VALID,344,VALID,0.354992,
2005-08-11, 00:38:00,VALID,917.384,VALID,0,VALID,94.0301,VALID,0.0509425,VALID,19.8088,VALID,344,VALID,0.150112,
2005-08-11, 00:39:00,VALID,917.359,VALID,0,VALID,94.0682,VALID,0,VALID,19.8152,VALID,344,VALID,0.010016,
2005-08-11, 00:40:00,VALID,917.339,VALID,0,VALID,93.9156,VALID,0,VALID,19.8215,VALID,344,VALID,0,
2005-08-11, 00:41:00,VALID,917.332,VALID,0,VALID,93.7363,VALID,0.0169808,VALID,19.8314,VALID,344,VALID,0,
2005-08-11, 00:42:00,VALID,917.331,VALID,0,VALID,93.8482,VALID,0.0169808,VALID,19.8446,VALID,344,VALID,0,
2005-08-11, 00:43:00,VALID,917.319,VALID,0,VALID,94.0949,VALID,0.0169808,VALID,19.8503,VALID,344,VALID,0.125,
2005-08-11, 00:44:00,VALID,917.302,VALID,0,VALID,93.9233,VALID,-0.0679233,VALID,19.8488,VALID,344,VALID,0.24891,
2005-08-11, 00:45:00,VALID,917.283,VALID,0,VALID,93.8012,VALID,-0.101885,VALID,19.8557,VALID,344,VALID,0.00683594,
2005-08-11, 00:46:00,VALID,917.277,VALID,0,VALID,93.7847,VALID,-0.0679233,VALID,19.8587,VALID,344,VALID,0,
2005-08-11, 00:47:00,VALID,917.257,VALID,0,VALID,94.0619,VALID,-0.0339617,VALID,19.8711,VALID,344,VALID,0.000372024,
2005-08-11, 00:48:00,VALID,917.238,VALID,0,VALID,94.6112,VALID,-0.101885,VALID,19.8878,VALID,344,VALID,0.0523793,
2005-08-11, 00:49:00,VALID,917.242,VALID,0,VALID,94.5845,VALID,-0.0509425,VALID,19.8749,VALID,344,VALID,0,
2005-08-11, 00:50:00,VALID,917.252,VALID,0,VALID,94.32,VALID,-0.0509425,VALID,19.8552,VALID,344,VALID,0.0819404,
2005-08-11, 00:51:00,VALID,917.257,VALID,0,VALID,94.1026,VALID,-0.0849042,VALID,19.8364,VALID,344,VALID,0.170201,
2005-08-11, 00:52:00,VALID,917.262,VALID,0,VALID,94.2806,VALID,-0.0679233,VALID,19.8326,VALID,344,VALID,0.207031,
2005-08-11, 00:53:00,VALID,917.269,VALID,0,VALID,94.7727,VALID,-0.0679233,VALID,19.8391,VALID,344,VALID,0.12157,
2005-08-11, 00:54:00,VALID,917.277,VALID,0,VALID,95.0893,VALID,-0.0509425,VALID,19.8359,VALID,344,VALID,0,
2005-08-11, 00:55:00,VALID,917.288,VALID,0,VALID,95.2305,VALID,-0.0849042,VALID,19.8329,VALID,344,VALID,0,
2005-08-11, 00:56:00,VALID,917.301,VALID,0,VALID,94.9113,VALID,-0.0339617,VALID,19.8135,VALID,344,VALID,0.00117188,
2005-08-11, 00:57:00,VALID,917.296,VALID,0,VALID,94.8363,VALID,-0.0679233,VALID,19.8098,VALID,344,VALID,0.000186012,
2005-08-11, 00:58:00,VALID,917.296,VALID,0,VALID,94.3938,VALID,-0.101885,VALID,19.7974,VALID,344,VALID,0.0211293,
2005-08-11, 00:59:00,VALID,917.292,VALID,0,VALID,94.264,VALID,-0.0169808,VALID,19.7797,VALID,344,VALID,0,
2005-08-11, 01:00:00,VALID,917.278,VALID,0,VALID,94.3721,VALID,-0.0169808,VALID,19.7961,VALID,344,VALID,0,
2005-08-11, 01:01:00,VALID,917.269,VALID,0,VALID,94.423,VALID,-0.0339617,VALID,19.8125,VALID,344,VALID,0,
2005-08-11, 01:02:00,VALID,917.258,VALID,0,VALID,94.8197,VALID,-0.0339617,VALID,19.8356,VALID,344,VALID,0.100694,
2005-08-11, 01:03:00,VALID,917.264,VALID,0,VALID,94.5578,VALID,0,VALID,19.8225,VALID,344,VALID,0.03125,
2005-08-11, 01:04:00,VALID,917.252,VALID,0,VALID,94.8668,VALID,0,VALID,19.8418,VALID,344,VALID,0.176121,
2005-08-11, 01:05:00,VALID,917.258,VALID,0,VALID,94.8681,VALID,0,VALID,19.8418,VALID,344,VALID,0.271662,
2005-08-11, 01:06:00,VALID,917.238,VALID,0,VALID,95.0702,VALID,0,VALID,19.8282,VALID,344,VALID,0.297266,
2005-08-11, 01:07:00,VALID,917.24,VALID,0,VALID,94.8909,VALID,-0.0169808,VALID,19.8026,VALID,344,VALID,0.327237,
2005-08-11, 01:08:00,VALID,917.24,VALID,0,VALID,94.7663,VALID,-0.0169808,VALID,19.7807,VALID,344,VALID,0.362981,
2005-08-11, 01:09:00,VALID,917.237,VALID,0,VALID,94.6799,VALID,-0.0169808,VALID,19.7541,VALID,344,VALID,0.136533,
2005-08-11, 01:10:00,VALID,917.227,VALID,0,VALID,94.8884,VALID,0,VALID,19.7574,VALID,344,VALID,0.211648,
2005-08-11, 01:11:00,VALID,917.213,VALID,0,VALID,94.5578,VALID,0.0169808,VALID,19.7576,VALID,344,VALID,0.205469,
2005-08-11, 01:12:00,VALID,917.227,VALID,0,VALID,94.7638,VALID,0,VALID,19.7571,VALID,344,VALID,0.274771,
2005-08-11, 01:13:00,VALID,917.213,VALID,0,VALID,94.8401,VALID,0,VALID,19.7646,VALID,344,VALID,0.287212,
2005-08-11, 01:14:00,VALID,917.231,VALID,0,VALID,94.8515,VALID,-0.0169808,VALID,19.7382,VALID,344,VALID,0.348586,
2005-08-11, 01:15:00,VALID,917.23,VALID,0,VALID,95.0791,VALID,0,VALID,19.7412,VALID,344,VALID,0.120427,
2005-08-11, 01:16:00,VALID,917.218,VALID,0,VALID,95.1122,VALID,0,VALID,19.7514,VALID,344,VALID,0.168241,
2005-08-11, 01:17:00,VALID,917.211,VALID,0,VALID,94.7155,VALID,-0.0679233,VALID,19.7482,VALID,344,VALID,0.193859,
2005-08-11, 01:18:00,VALID,917.208,VALID,0,VALID,94.643,VALID,-0.0339617,VALID,19.7484,VALID,344,VALID,0.00635901,
2005-08-11, 01:19:00,VALID,917.183,VALID,0,VALID,94.8032,VALID,-0.0169808,VALID,19.7447,VALID,344,VALID,0,
2005-08-11, 01:20:00,VALID,917.172,VALID,0,VALID,95.0944,VALID,-0.0169808,VALID,19.771,VALID,344,VALID,0,
2005-08-11, 01:21:00,VALID,917.168,VALID,0,VALID,95.2445,VALID,-0.0339617,VALID,19.7576,VALID,344,VALID,0,
2005-08-11, 01:22:00,VALID,917.176,VALID,0,VALID,95.3436,VALID,0,VALID,19.7713,VALID,344,VALID,0,
2005-08-11, 01:23:00,VALID,917.181,VALID,0,VALID,95.3207,VALID,-0.0169808,VALID,19.742,VALID,344,VALID,0,
2005-08-11, 01:24:00,VALID,917.193,VALID,0,VALID,95.3614,VALID,0,VALID,19.7355,VALID,344,VALID,0,
2005-08-11, 01:25:00,VALID,917.174,VALID,0,VALID,95.4428,VALID,-0.0509425,VALID,19.7221,VALID,344,VALID,0,
2005-08-11, 01:26:00,VALID,917.176,VALID,0,VALID,95.5929,VALID,-0.0169808,VALID,19.7129,VALID,344,VALID,0,
2005-08-11, 01:27:00,VALID,917.177,VALID,0,VALID,95.4835,VALID,0,VALID,19.6739,VALID,344,VALID,0,
2005-08-11, 01:28:00,VALID,917.169,VALID,0,VALID,95.3932,VALID,0,VALID,19.6448,VALID,344,VALID,0,
2005-08-11, 01:29:00,VALID,917.162,VALID,0,VALID,95.1643,VALID,0.0849042,VALID,19.6178,VALID,344,VALID,0,
2005-08-11, 01:30:00,VALID,917.156,VALID,0,VALID,95.0652,VALID,0.101885,VALID,19.625,VALID,344,VALID,0,
2005-08-11, 01:31:00,VALID,917.133,VALID,0,VALID,95.0016,VALID,0.0679233,VALID,19.5949,VALID,344,VALID,0,
2005-08-11, 01:32:00,VALID,917.121,VALID,0,VALID,94.952,VALID,0.0849042,VALID,19.5892,VALID,344,VALID,0,
2005-08-11, 01:33:00,VALID,917.117,VALID,0,VALID,94.9545,VALID,0.0849042,VALID,19.582,VALID,344,VALID,0,
2005-08-11, 01:34:00,VALID,917.099,VALID,0,VALID,94.9431,VALID,0.0679233,VALID,19.5823,VALID,344,VALID,0,
2005-08-11, 01:35:00,VALID,917.074,VALID,0,VALID,94.9749,VALID,0.0849042,VALID,19.5825,VALID,344,VALID,0,
2005-08-11, 01:36:00,VALID,917.057,VALID,0,VALID,94.9927,VALID,0.101885,VALID,19.5686,VALID,344,VALID,0,
2005-08-11, 01:37:00,VALID,917.041,VALID,0,VALID,95.0372,VALID,0.118866,VALID,19.5527,VALID,344,VALID,0,
2005-08-11, 01:38:00,VALID,917.038,VALID,0,VALID,95.0448,VALID,0.0849042,VALID,19.5303,VALID,344,VALID,0,
2005-08-11, 01:39:00,VALID,917.032,VALID,0,VALID,95.1427,VALID,0.101885,VALID,19.5214,VALID,344,VALID,0,
2005-08-11, 01:40:00,VALID,917.01,VALID,0,VALID,95.3297,VALID,0.0679233,VALID,19.4918,VALID,344,VALID,0,
2005-08-11, 01:41:00,VALID,917.006,VALID,0,VALID,95.4238,VALID,0.0679233,VALID,19.4829,VALID,344,VALID,0,
2005-08-11, 01:42:00,VALID,916.984,VALID,0,VALID,95.453,VALID,0,VALID,19.4645,VALID,344,VALID,0,
2005-08-11, 01:43:00,VALID,916.98,VALID,0,VALID,95.5814,VALID,0,VALID,19.4384,VALID,344,VALID,0,
2005-08-11, 01:44:00,VALID,916.973,VALID,0,VALID,95.6666,VALID,0.0339617,VALID,19.4248,VALID,344,VALID,0,
2005-08-11, 01:45:00,VALID,916.979,VALID,0,VALID,95.6704,VALID,0.0509425,VALID,19.3826,VALID,344,VALID,0,
2005-08-11, 01:46:00,VALID,916.964,VALID,0,VALID,95.79,VALID,0.0509425,VALID,19.3277,VALID,344,VALID,0,
2005-08-11, 01:47:00,VALID,916.956,VALID,0,VALID,96.118,VALID,0.0169808,VALID,19.3055,VALID,344,VALID,0,
2005-08-11, 01:48:00,VALID,916.935,VALID,0,VALID,96.3393,VALID,0.0339617,VALID,19.2695,VALID,344,VALID,0,
2005-08-11, 01:49:00,VALID,916.911,VALID,0,VALID,96.5669,VALID,0.0339617,VALID,19.3021,VALID,344,VALID,0,
2005-08-11, 01:50:00,VALID,916.899,VALID,0,VALID,96.6865,VALID,0.0169808,VALID,19.3344,VALID,344,VALID,0,
2005-08-11, 01:51:00,VALID,916.884,VALID,0,VALID,96.6178,VALID,0.0169808,VALID,19.3699,VALID,344,VALID,0,
2005-08-11, 01:52:00,VALID,916.856,VALID,0,VALID,96.5847,VALID,0.0169808,VALID,19.3826,VALID,344,VALID,0,
2005-08-11, 01:53:00,VALID,916.84,VALID,0,VALID,96.5033,VALID,0.0679233,VALID,19.3957,VALID,344,VALID,0,
2005-08-11, 01:54:00,VALID,916.826,VALID,0,VALID,96.483,VALID,0.0679233,VALID,19.3957,VALID,344,VALID,0,
2005-08-11, 01:55:00,VALID,916.821,VALID,0,VALID,96.5466,VALID,0.0509425,VALID,19.4151,VALID,344,VALID,0,
2005-08-11, 01:56:00,VALID,916.813,VALID,0,VALID,96.5657,VALID,0.0169808,VALID,19.4345,VALID,344,VALID,0.0713542,
2005-08-11, 01:57:00,VALID,916.809,VALID,0,VALID,96.5453,VALID,0.0679233,VALID,19.4407,VALID,344,VALID,0,
2005-08-11, 01:58:00,VALID,916.807,VALID,0,VALID,96.4448,VALID,0.0339617,VALID,19.4476,VALID,344,VALID,0,
2005-08-11, 01:59:00,VALID,916.811,VALID,0,VALID,96.572,VALID,0,VALID,19.4449,VALID,344,VALID,0,
2005-08-11, 02:00:00,VALID,916.803,VALID,0,VALID,96.572,VALID,-0.0509425,VALID,19.4546,VALID,344,VALID,0,
2005-08-11, 02:01:00,VALID,916.81,VALID,0,VALID,96.5033,VALID,-0.0509425,VALID,19.4585,VALID,344,VALID,0,
2005-08-11, 02:02:00,VALID,916.826,VALID,0,VALID,96.2032,VALID,-0.0509425,VALID,19.4421,VALID,344,VALID,0,
2005-08-11, 02:03:00,VALID,916.834,VALID,0,VALID,96.0201,VALID,0,VALID,19.3771,VALID,344,VALID,0,
2005-08-11, 02:04:00,VALID,916.841,VALID,0,VALID,96.2719,VALID,-0.0339617,VALID,19.3323,VALID,344,VALID,0.0128997,
2005-08-11, 02:05:00,VALID,916.837,VALID,0,VALID,96.5084,VALID,-0.0509425,VALID,19.3035,VALID,344,VALID,0.352778,
2005-08-11, 02:06:00,VALID,916.834,VALID,0,VALID,96.7259,VALID,-0.0849042,VALID,19.2876,VALID,344,VALID,0.346418,
2005-08-11, 02:07:00,VALID,916.829,VALID,0,VALID,97.1239,VALID,-0.0509425,VALID,19.31,VALID,344,VALID,0.182465,
2005-08-11, 02:08:00,VALID,916.822,VALID,0,VALID,97.2243,VALID,-0.0509425,VALID,19.3132,VALID,344,VALID,0,
2005-08-11, 02:09:00,VALID,916.819,VALID,0,VALID,97.1786,VALID,-0.0169808,VALID,19.3068,VALID,344,VALID,0.0327035,
2005-08-11, 02:10:00,VALID,916.82,VALID,0,VALID,97.3299,VALID,-0.0679233,VALID,19.2941,VALID,344,VALID,0.223958,
2005-08-11, 02:11:00,VALID,916.811,VALID,0,VALID,97.4787,VALID,-0.0169808,VALID,19.2842,VALID,344,VALID,0.146621,
2005-08-11, 02:12:00,VALID,916.797,VALID,0,VALID,97.6898,VALID,-0.0509425,VALID,19.2842,VALID,344,VALID,0.0449695,
2005-08-11, 02:13:00,VALID,916.776,VALID,0,VALID,97.8271,VALID,-0.0849042,VALID,19.2904,VALID,344,VALID,0.206473,
2005-08-11, 02:14:00,VALID,916.772,VALID,0,VALID,97.864,VALID,-0.0849042,VALID,19.3132,VALID,344,VALID,0.297256,
2005-08-11, 02:15:00,VALID,916.761,VALID,0,VALID,97.8627,VALID,-0.0679233,VALID,19.3261,VALID,344,VALID,0.0921148,
2005-08-11, 02:16:00,VALID,916.768,VALID,0,VALID,97.7648,VALID,-0.0509425,VALID,19.3227,VALID,344,VALID,0.0012718,
2005-08-11, 02:17:00,VALID,916.762,VALID,0,VALID,97.7114,VALID,-0.0849042,VALID,19.3035,VALID,344,VALID,0.048971,
2005-08-11, 02:18:00,VALID,916.763,VALID,0,VALID,97.8195,VALID,-0.0679233,VALID,19.307,VALID,344,VALID,0.154797,
2005-08-11, 02:19:00,VALID,916.744,VALID,0,VALID,97.9619,VALID,-0.0849042,VALID,19.3167,VALID,348,VALID,0.24782,
2005-08-11, 02:20:00,VALID,916.729,VALID,0,VALID,97.8601,VALID,-0.0679233,VALID,19.304,VALID,359,VALID,0.384811,
2005-08-11, 02:21:00,VALID,916.726,VALID,0,VALID,97.9352,VALID,-0.0679233,VALID,19.2916,VALID,359,VALID,0.0681323,
2005-08-11, 02:22:00,VALID,916.702,VALID,0,VALID,98.0318,VALID,-0.0849042,VALID,19.2809,VALID,359,VALID,0,
2005-08-11, 02:23:00,VALID,916.685,VALID,0,VALID,98.1017,VALID,-0.0509425,VALID,19.2881,VALID,359,VALID,0.0848722,
2005-08-11, 02:24:00,VALID,916.669,VALID,0,VALID,98.1335,VALID,-0.0509425,VALID,19.2745,VALID,359,VALID,0.00410156,
2005-08-11, 02:25:00,VALID,916.662,VALID,0,VALID,98.1005,VALID,-0.0509425,VALID,19.2683,VALID,359,VALID,0.171148,
2005-08-11, 02:26:00,VALID,916.664,VALID,0,VALID,98.1221,VALID,-0.0509425,VALID,19.2489,VALID,359,VALID,0.219965,
2005-08-11, 02:27:00,VALID,916.671,VALID,0,VALID,98.2111,VALID,-0.0679233,VALID,19.2362,VALID,359,VALID,0.0109375,
2005-08-11, 02:28:00,VALID,916.646,VALID,0,VALID,98.3777,VALID,-0.0849042,VALID,19.2228,VALID,359,VALID,0.00099734,
2005-08-11, 02:29:00,VALID,916.657,VALID,0,VALID,98.454,VALID,-0.0679233,VALID,19.2489,VALID,359,VALID,0,
2005-08-11, 02:30:00,VALID,916.643,VALID,0,VALID,98.4845,VALID,-0.0509425,VALID,19.2422,VALID,359,VALID,0.000545058,
2005-08-11, 02:31:00,VALID,916.635,VALID,0,VALID,98.501,VALID,-0.0679233,VALID,19.2482,VALID,359,VALID,0.00742187,
2005-08-11, 02:32:00,VALID,916.614,VALID,0,VALID,98.4591,VALID,-0.0679233,VALID,19.2452,VALID,359,VALID,0,
2005-08-11, 02:33:00,VALID,916.602,VALID,0,VALID,98.4514,VALID,-0.0339617,VALID,19.2454,VALID,359,VALID,0,
2005-08-11, 02:34:00,VALID,916.594,VALID,0,VALID,98.4896,VALID,-0.0679233,VALID,19.2489,VALID,359,VALID,0,
2005-08-11, 02:35:00,VALID,916.583,VALID,0,VALID,98.5913,VALID,-0.0339617,VALID,19.2648,VALID,359,VALID,0.0865091,
2005-08-11, 02:36:00,VALID,916.569,VALID,0,VALID,98.6053,VALID,-0.0679233,VALID,19.2876,VALID,359,VALID,0.00319602,
2005-08-11, 02:37:00,VALID,916.568,VALID,0,VALID,98.6002,VALID,-0.0509425,VALID,19.2842,VALID,359,VALID,0,
2005-08-11, 02:38:00,VALID,916.549,VALID,0,VALID,98.6117,VALID,-0.0169808,VALID,19.2869,VALID,359,VALID,0.0552455,
2005-08-11, 02:39:00,VALID,916.547,VALID,0,VALID,98.6244,VALID,-0.0169808,VALID,19.3003,VALID,359,VALID,0.0509673,
2005-08-11, 02:40:00,VALID,916.542,VALID,0,VALID,98.6752,VALID,-0.0339617,VALID,19.3097,VALID,359,VALID,0,
2005-08-11, 02:41:00,VALID,916.541,VALID,0,VALID,98.6498,VALID,-0.0849042,VALID,19.31,VALID,359,VALID,0,
2005-08-11, 02:42:00,VALID,916.546,VALID,0,VALID,98.618,VALID,-0.0679233,VALID,19.3093,VALID,359,VALID,0,
2005-08-11, 02:43:00,VALID,916.551,VALID,0,VALID,98.5608,VALID,-0.0509425,VALID,19.3296,VALID,359,VALID,0,
2005-08-11, 02:44:00,VALID,916.557,VALID,0,VALID,98.5811,VALID,-0.0679233,VALID,19.3194,VALID,359,VALID,0,
2005-08-11, 02:45:00,VALID,916.548,VALID,0,VALID,98.6969,VALID,-0.101885,VALID,19.3125,VALID,359,VALID,0,
2005-08-11, 02:46:00,VALID,916.548,VALID,0,VALID,98.7134,VALID,-0.0509425,VALID,19.3291,VALID,359,VALID,0,
2005-08-11, 02:47:00,VALID,916.563,VALID,0,VALID,98.8469,VALID,-0.0339617,VALID,19.3261,VALID,359,VALID,0.0736111,
2005-08-11, 02:48:00,VALID,916.573,VALID,0,VALID,99.0033,VALID,-0.0849042,VALID,19.3356,VALID,359,VALID,0,
2005-08-11, 02:49:00,VALID,916.598,VALID,0,VALID,99.0427,VALID,-0.101885,VALID,19.3458,VALID,359,VALID,0.138086,
2005-08-11, 02:50:00,VALID,916.613,VALID,0,VALID,99.0198,VALID,-0.0849042,VALID,19.342,VALID,359,VALID,0.111458,
2005-08-11, 02:51:00,VALID,916.625,VALID,0,VALID,99.0008,VALID,-0.0509425,VALID,19.3323,VALID,359,VALID,0,
2005-08-11, 02:52:00,VALID,916.637,VALID,0,VALID,98.9715,VALID,-0.0339617,VALID,19.3192,VALID,359,VALID,0,
2005-08-11, 02:53:00,VALID,916.639,VALID,0,VALID,99.0351,VALID,-0.0679233,VALID,19.3162,VALID,359,VALID,0,
2005-08-11, 02:54:00,VALID,916.634,VALID,0,VALID,99.0961,VALID,-0.0849042,VALID,19.3264,VALID,359,VALID,0,
2005-08-11, 02:55:00,VALID,916.639,VALID,0,VALID,99.1178,VALID,-0.101885,VALID,19.3231,VALID,359,VALID,0,
2005-08-11, 02:56:00,VALID,916.645,VALID,0,VALID,99.1127,VALID,-0.101885,VALID,19.3127,VALID,359,VALID,0,
2005-08-11, 02:57:00,VALID,916.67,VALID,0,VALID,99.0071,VALID,-0.0849042,VALID,19.3068,VALID,359,VALID,0,
2005-08-11, 02:58:00,VALID,916.678,VALID,0,VALID,99.0186,VALID,-0.0679233,VALID,19.2938,VALID,359,VALID,0.276228,
2005-08-11, 02:59:00,VALID,916.7,VALID,0,VALID,99.1394,VALID,-0.0679233,VALID,19.2837,VALID,359,VALID,0.147204,
2005-08-11, 03:00:00,VALID,916.69,VALID,0,VALID,99.1534,VALID,-0.101885,VALID,19.2971,VALID,359,VALID,0,
2005-08-11, 03:01:00,VALID,916.697,VALID,0,VALID,99.0593,VALID,-0.0679233,VALID,19.2904,VALID,359,VALID,0.0604539,
2005-08-11, 03:02:00,VALID,916.703,VALID,0,VALID,99.0249,VALID,-0.0679233,VALID,19.2616,VALID,359,VALID,0,
2005-08-11, 03:03:00,VALID,916.711,VALID,0,VALID,99.0758,VALID,-0.101885,VALID,19.2519,VALID,359,VALID,0,
2005-08-11, 03:04:00,VALID,916.713,VALID,0,VALID,99.1966,VALID,-0.0849042,VALID,19.2519,VALID,359,VALID,0.0752668,
2005-08-11, 03:05:00,VALID,916.705,VALID,0,VALID,99.292,VALID,-0.0849042,VALID,19.2357,VALID,359,VALID,0.279212,
2005-08-11, 03:06:00,VALID,916.704,VALID,0,VALID,99.4738,VALID,-0.0679233,VALID,19.2293,VALID,54,VALID,0.4504,
2005-08-11, 03:07:00,VALID,916.707,VALID,0,VALID,99.6506,VALID,-0.0339617,VALID,19.2223,VALID,89,VALID,0.380996,
2005-08-11, 03:08:00,VALID,916.702,VALID,0,VALID,99.7421,VALID,-0.0339617,VALID,19.2221,VALID,89,VALID,0.220139,
2005-08-11, 03:09:00,VALID,916.703,VALID,0,VALID,99.821,VALID,-0.0679233,VALID,19.2221,VALID,89,VALID,0.199505,
2005-08-11, 03:10:00,VALID,916.713,VALID,0,VALID,99.8845,VALID,-0.0169808,VALID,19.2256,VALID,89,VALID,0.379573,
2005-08-11, 03:11:00,VALID,916.721,VALID,0,VALID,99.9418,VALID,-0.0849042,VALID,19.2357,VALID,89,VALID,0.521354,
2005-08-11, 03:12:00,VALID,916.736,VALID,0,VALID,99.9771,VALID,-0.0509425,VALID,19.2419,VALID,89,VALID,0.490885,
2005-08-11, 03:13:00,VALID,916.739,VALID,0,VALID,100,VALID,-0.0509425,VALID,19.265,VALID,89,VALID,0.312109,
2005-08-11, 03:14:00,VALID,916.747,VALID,0,VALID,100,VALID,0,VALID,19.2675,VALID,89,VALID,0.277435,
2005-08-11, 03:15:00,VALID,916.751,VALID,0,VALID,99.9822,VALID,-0.0849042,VALID,19.271,VALID,89,VALID,0.045277,
2005-08-11, 03:16:00,VALID,916.753,VALID,0,VALID,99.9354,VALID,-0.0169808,VALID,19.2842,VALID,89,VALID,0,
2005-08-11, 03:17:00,VALID,916.737,VALID,0,VALID,99.9265,VALID,-0.0339617,VALID,19.304,VALID,89,VALID,0,
2005-08-11, 03:18:00,VALID,916.735,VALID,0,VALID,99.9621,VALID,-0.0849042,VALID,19.2842,VALID,89,VALID,0,
2005-08-11, 03:19:00,VALID,916.724,VALID,0,VALID,99.9954,VALID,-0.0679233,VALID,19.3068,VALID,89,VALID,0,
2005-08-11, 03:20:00,VALID,916.717,VALID,0,VALID,100,VALID,-0.0339617,VALID,19.3197,VALID,89,VALID,0,
2005-08-11, 03:21:00,VALID,916.7,VALID,0,VALID,99.9405,VALID,-0.0169808,VALID,19.31,VALID,89,VALID,0,
2005-08-11, 03:22:00,VALID,916.692,VALID,0,VALID,99.9545,VALID,-0.0169808,VALID,19.2934,VALID,89,VALID,0,
2005-08-11, 03:23:00,VALID,916.678,VALID,0,VALID,99.9964,VALID,-0.101885,VALID,19.2874,VALID,89,VALID,0.32431,
2005-08-11, 03:24:00,VALID,916.658,VALID,0,VALID,100,VALID,-0.0169808,VALID,19.2906,VALID,89,VALID,0.423958,
2005-08-11, 03:25:00,VALID,916.65,VALID,0,VALID,100,VALID,-0.0679233,VALID,19.2842,VALID,89,VALID,0.26875,
2005-08-11, 03:26:00,VALID,916.635,VALID,0,VALID,100,VALID,-0.0509425,VALID,19.2812,VALID,89,VALID,0.313086,
2005-08-11, 03:27:00,VALID,916.643,VALID,0,VALID,100,VALID,-0.0679233,VALID,19.2846,VALID,89,VALID,0.297215,
2005-08-11, 03:28:00,VALID,916.637,VALID,0,VALID,100,VALID,-0.0849042,VALID,19.2844,VALID,89,VALID,0.27077,
2005-08-11, 03:29:00,VALID,916.637,VALID,0,VALID,100,VALID,-0.101885,VALID,19.2812,VALID,89,VALID,0.322359,
2005-08-11, 03:30:00,VALID,916.635,VALID,0,VALID,100,VALID,-0.0679233,VALID,19.2837,VALID,89,VALID,0.197731,
2005-08-11, 03:31:00,VALID,916.639,VALID,0,VALID,100,VALID,-0.0169808,VALID,19.2901,VALID,89,VALID,0.334961,
2005-08-11, 03:32:00,VALID,916.633,VALID,0,VALID,100,VALID,-0.0169808,VALID,19.3033,VALID,89,VALID,0.366279,
2005-08-11, 03:33:00,VALID,916.632,VALID,0,VALID,100,VALID,-0.0849042,VALID,19.3001,VALID,89,VALID,0.220424,
2005-08-11, 03:34:00,VALID,916.641,VALID,0,VALID,100,VALID,0,VALID,19.2809,VALID,89,VALID,0.136628,
2005-08-11, 03:35:00,VALID,916.636,VALID,0,VALID,100,VALID,-0.0849042,VALID,19.2809,VALID,89,VALID,0,